Location: Arthez
(43.0833°N, 0.2500°W)
Time: 00:22:30
(UTC+00:00)

Cosmos 2219 Rocket - Pass Details

Date: 23 October 2021
Orbit: 827 x 848 km, 71.0° (Epoch: 27 November)

Event Time Altitude Azimuth Distance (km) Brightness Sun altitude
Rises 18:26:15 0° 158° (SSE) 3,351 5.1 -15.4°
Reaches altitude 10° 18:29:24 10° 140° (SE) 2,425 4.2 -16.0°
Enters shadow 18:29:48 11° 137° (SE) 2,331 4.1 -16.0°
